Showing default

GALILEO 18 (26E), 41862

Orbit data source: Space-Track

GALILEO 18 (26E), 41862 is a payload satellite owned by GNSS Agency (ESA) that was launched on Thu, 17 Nov 2016 UTC via an ARIANE 5ES launch vehicle from the French Guiana (FRGUI). Payload-class satellites include a variety of spacecraft equipped with specific instruments for various scientific and technological missions. These include communications satellites like Starlink; space stations such as the ISS; scientific satellites like the Hubble; Earth observation satellites from companies like Planet Labs, Umbra, and HawkEye 360; GPS; miniature CubeSats for education and research; and military/defense satellites.

Loading next visibility...
Identifier
41862, 2016-069D
Orbit
Active
Country
Flag of ESAESA
Related business
Manufacturer
OHB
Mission
Operational Civil Navigation
Bus & Motor
GALILEOSAT, AOCS
Mass
738 kg wet, 700 kg dry
Launch date (UTC)
2016-11-17 (9 years ago)
Launch vehicle
ARIANE 5ES
Launch site
French Guiana (FRGUI)
Object type
Payload
Rocket body
Debris
Shape & HBR
Box + 2 Pan, 7.3 m
Radar Cross Section
9.223 m², Large (>1 m²)

Expand to show TLE details & history
Last TLE update: 2 days ago

TLE from 2 days ago
0 GALILEO 18 (26E)
1 41862U 16069D   25301.99896608  .00000068  00000-0  00000-0 0  9993
2 41862  55.3532 107.4849 0000750 327.7952  32.2203  1.70474495 55706
Epoch: 2025-10-28T23:58Z
TLE epoch observation values (Epoch: 2025-10-28T23:58:30.669Z)
Latitude
0.00002°
Longitude
70.26385°
Altitude
23,220.517 km
Speed
3.67 km/s
True Right ascension
07h 09m 52s
True Declination
0° 00' 00"
Sunlit
Object was in daylight at epoch
Visualization orbit readout
Latitude
Unknown
Longitude
Unknown
Altitude
Unknown
Speed
Unknown
Apparent Right ascension
Unknown
Apparent Declination
Unknown
Sunlit
N/A
Visualization observer readout
Local Sidereal Time
23:04:29
Azimuth
Unknown
Elevation
Unknown
Doppler factor
Unknown
Orbital elements
Apogee altitude
23,224.341 km
Perigee altitude
23,219.901 km
Semi-major axis
29,600.258 km
Eccentricity
0.00008
Inclination
55.3532°
RAAN
107.4849°
Arg. of periapsis
327.7952°
True anomaly
32.22488°
Mean anomaly
32.2203°
Eccentric anomaly
32.22259°
Mean motion
0.42619 °/min
Orbital period
844.7 mins
BSTAR
0
Loading maneuver chart data...
Computing Atmospheric mass density...
Loading historical data...
Loading historical data...
Loading historical data...
Loading historical data...
Loading historical data...
Loading historical data...
Loading historical data...
Other satellites on launch #69 in the year 2016 (2016-11-17 UTC)

Documentation

Showing up to 5 results
|